Tracking 28790 objects as of 19-Apr-2024
HD Live streaming from Space Station
objects crossing your sky now

SCD 2

Track SCD 2 now!
10-day predictions
SCD 2 is classified as:


NORAD ID: 25504
Int'l Code: 1998-060A
Perigee: 737.9 km
Apogee: 762.4 km
Inclination: 25.0 °
Period: 99.7 minutes
Semi major axis: 7121 km
RCS: 0.4871 m2 (medium)
Launch date: October 23, 1998
Source: Brazil (BRAZ)
Launch site: Pegasus launched from Eastern Range Air Space (ERAS)
Your satellite tracking list
Your tracking list is empty




NASA's NSSDC Master Catalog

Two Line Element Set (TLE):
1 25504U 98060A   24109.74666240  .00001047  00000-0  24521-3 0  9999
2 25504  24.9950 258.1290 0017231  65.2287  30.4211 14.44708940346003
Source of the keplerian elements: AFSPC